COSMOS 2251 DEB, 35671

Orbit data source: Space-Track

COSMOS 2251 DEB, 35671 is space debris in LEO originally from a launch on Wed, 16 Jun 1993 UTC launched from the Plesetsk Missile And Space Complex (PKMTR). The debris from Iridium 33, an American commercial communications satellite, has been tracked extensively since its accidental collision with the defunct Russian satellite Cosmos 2251 in 2009. This event, occurring at high speed in low Earth orbit (LEO), generated thousands of pieces of space debris, significantly increasing the risk of further collisions. The Iridium 33 debris cloud has impacted space traffic management and orbital debris mitigation strategies, making it a subject of ongoing study in space situational awareness.

Loading next visibility...
Identifier
35671, 1993-036APN
Orbit
LEO
Country
Flag of CISCIS
Related business
Manufacturer
Unknown
Mission
Spacecraft
Bus & Motor
Unknown
Mass
Unknown
Launch date (UTC)
1993-06-16 (33 years ago)
Launch vehicle
Unknown
Launch site
Plesetsk Missile And Space Complex (PKMTR)
Object type
Payload
Rocket body
Debris
Shape & HBR
Unknown shape, 0.1 m
Radar Cross Section
Small (<0.1 m²)

Expand to show TLE details & history
Last TLE update: 1 day ago

TLE from 1 day ago
0 COSMOS 2251 DEB
1 35671U 93036APN 26256.84266721  .00000310  00000-0  88951-4 0  9999
2 35671  74.0154 283.3352 0039615  27.4571 145.8677 14.48683975907460
Epoch: 2026-09-13T20:13Z
TLE epoch observation values (Epoch: 2026-09-13T20:13:26.446Z)
Latitude
6.09887°
Longitude
165.39891°
Altitude
755.337 km
Speed
7.465 km/s
True Right ascension
06h 46m 21s
True Declination
6° 03' 45"
Sunlit
Object was in daylight at epoch
Visualization orbit readout
Latitude
Unknown
Longitude
Unknown
Altitude
Unknown
Speed
Unknown
Apparent Right ascension
Unknown
Apparent Declination
Unknown
Sunlit
N/A
Visualization observer readout
Local Sidereal Time
17:30:57
Azimuth
Unknown
Elevation
Unknown
Doppler factor
Unknown
Orbital elements
Apogee altitude
755.711 km
Perigee altitude
699.413 km
Semi-major axis
7,105.699 km
Eccentricity
0.00396
Inclination
74.0154°
RAAN
283.3352°
Arg. of periapsis
27.4571°
True anomaly
146.12138°
Mean anomaly
145.8677°
Eccentric anomaly
145.99464°
Mean motion
3.62354 °/min
Orbital period
99.35 mins
BSTAR
0.000088951
Loading maneuver chart data...
Computing Atmospheric mass density...

Documentation

Showing up to 5 results
|